Hourly Data Report for October 01, 2020

OTTAWA INTL A
ONTARIO
Current Station Operator: NAVCAN

45°19'00.000" N
75°40'00.000" W
114.90 m
6106001
71628
YOW

Download Data

Hourly Data (October 2020)
Hourly Data Report for October 1, 2020
TIME Temp Definition
°C
Dew Point Definition
°C
Rel Hum Definition
%
Wind Dir Definition
10's deg

Wind Spd Definition
km/h
Visibility Definition
km
Stn Press Definition
kPa
Hmdx Definition


Wind Chill Definition


Weather Definition


00:00 10.9 9.8 93 22 10 24.1 98.89     LegendNANA
01:00 10.8 9.9 94 19 15 24.1 98.96     Mostly Cloudy
02:00 9.9 9.4 96 22 8 24.1 98.97     LegendNANA
03:00 10.1 9.6 97 22 7 24.1 99.02     LegendNANA
04:00 10.0 9.3 96 21 8 24.1 99.08     Mostly Cloudy
05:00 9.6 9.1 96 20 6 24.1 99.15     LegendNANA
06:00 9.7 9.1 96 22 7 24.1 99.19     LegendNANA
07:00 9.9 9.2 95 22 13 24.1 99.25     Mostly Cloudy
08:00 10.7 9.4 92 19 9 24.1 99.33     LegendNANA
09:00 11.9 10.1 88 22 17 24.1 99.38     LegendNANA
10:00 14.4 10.0 75 22 17 24.1 99.39     Mainly Clear
11:00 15.3 9.8 69 21 19 24.1 99.43     LegendNANA
12:00 15.2 8.8 65 21 21 24.1 99.49     LegendNANA
13:00 15.7 10.0 68 22 18 24.1 99.52     Mainly Clear
14:00 17.2 8.7 57 21 22 24.1 99.53     LegendNANA
15:00 14.1 9.5 73 30 9 24.1 99.57     LegendNANA
16:00 16.2 7.5 56 23 20 24.1 99.59     Mostly Cloudy
17:00 14.6 9.4 71 26 15 24.1 99.69     LegendNANA
18:00 11.6 8.0 78 30 7 24.1 99.75     LegendNANA
19:00 11.6 7.3 75 24 4 24.1 99.81     Mostly Cloudy
20:00 9.6 7.1 85 18 5 24.1 99.86     LegendNANA
21:00 9.7 8.4 92 36 3 24.1 99.91     LegendNANA
22:00 8.8 7.9 94 21 5 24.1 99.90     Mostly Cloudy
23:00 9.0 8.2 95 24 7 24.1 99.94     LegendNANA

Notes on Data Quality.

Legend

  • E = Estimated
  • M = Missing
  • NA = Not Available*
  • [empty] = Indicates an unobserved value
Date modified: